COSMOS 2251 DEB, 33779

Orbit data source: Space-Track

COSMOS 2251 DEB, 33779 is space debris in LEO originally from a launch on Wed, 16 Jun 1993 UTC launched from the Plesetsk Missile And Space Complex (PKMTR). The debris from Iridium 33, an American commercial communications satellite, has been tracked extensively since its accidental collision with the defunct Russian satellite Cosmos 2251 in 2009. This event, occurring at high speed in low Earth orbit (LEO), generated thousands of pieces of space debris, significantly increasing the risk of further collisions. The Iridium 33 debris cloud has impacted space traffic management and orbital debris mitigation strategies, making it a subject of ongoing study in space situational awareness.

Loading next visibility...
Identifier
33779, 1993-036U
Orbit
LEO
Country
Flag of CISCIS
Related business
Manufacturer
Unknown
Mission
Spacecraft
Bus & Motor
Unknown
Mass
Unknown
Launch date (UTC)
1993-06-16 (33 years ago)
Launch vehicle
Unknown
Launch site
Plesetsk Missile And Space Complex (PKMTR)
Object type
Payload
Rocket body
Debris
Shape & HBR
Unknown shape, 0.1 m
Radar Cross Section
Medium (>0.1 m² and <1 m²)

Expand to show TLE details & history
Last TLE update: 20 hours ago

TLE from 20 hours ago
0 COSMOS 2251 DEB
1 33779U 93036U   26208.95063369  .00013541  00000-0  19887-2 0  9998
2 33779  74.0437  88.1345 0014719  73.6314 299.8210 14.75457199918743
Epoch: 2026-07-27T22:48Z
TLE epoch observation values (Epoch: 2026-07-27T22:48:54.750Z)
Latitude
12.75162°
Longitude
163.96935°
Altitude
640.472 km
Speed
7.542 km/s
True Right ascension
06h 07m 17s
True Declination
12° 40' 36"
Sunlit
Object was in daylight at epoch
Visualization orbit readout
Latitude
Unknown
Longitude
Unknown
Altitude
Unknown
Speed
Unknown
Apparent Right ascension
Unknown
Apparent Declination
Unknown
Sunlit
N/A
Visualization observer readout
Local Sidereal Time
08:41:49
Azimuth
Unknown
Elevation
Unknown
Doppler factor
Unknown
Orbital elements
Apogee altitude
651.612 km
Perigee altitude
630.948 km
Semi-major axis
7,019.417 km
Eccentricity
0.00147
Inclination
74.0437°
RAAN
88.1345°
Arg. of periapsis
73.6314°
True anomaly
299.67453°
Mean anomaly
299.821°
Eccentric anomaly
299.74778°
Mean motion
3.69055 °/min
Orbital period
97.55 mins
BSTAR
0.0019887
Loading maneuver chart data...
Computing Atmospheric mass density...

Documentation

Showing up to 5 results
|